This demonstration page uses our WeatherBlox Daily Observations layout. Learn more.

39.08367, -84.50855

Hourly Observations for January 8, 2019

Temp ( °F °C ) Dew Point ( °F °C ) Humidity (%) Winds ( mph kmh ) Pressure ( in mb ) Visibility ( mi km ) Precip ( " mm )
12:29 am 00:29 Mostly Cloudy 56 13.3 49 9.4 77 77 SW 12 19 29.94 1014 10 16.09344 0 0
12:45 am 00:45 Mostly Cloudy 56 13.3 49 9.4 77 77 SW 9 15 29.94 1014 10 16.09344 0 0
12:53 am 00:53 Mostly Cloudy 56 13.3 49 9.4 77 77 SW 9 15 29.94 1014 10 16.09344 0 0
1:53 am 01:53 Partly Cloudy 55 12.8 49 9.4 80 80 SSW 14 22 29.94 1014 10 16.09344 0 0
2:06 am 02:06 Mostly Cloudy 56 13.3 50 10 81 81 SSW 12 19 29.97 1015 10 16.09344 0 0
2:14 am 02:14 Mostly Cloudy 56 13.3 50 10 81 81 SSW 13 20 29.94 1014 10 16.09344 0 0
2:53 am 02:53 Mostly Cloudy 54 12.2 49 9.4 83 83 SSW 10 17 29.91 1013 10 16.09344 0 0
3:53 am 03:53 Cloudy 55 12.8 49 9.4 80 80 SSW 12 19 29.91 1013 10 16.09344 0 0
4:04 am 04:04 Cloudy 56 13.3 49 9.4 77 77 SSW 12 19 29.94 1014 10 16.09344 0 0
4:34 am 04:34 Mostly Cloudy 54 12.2 48 8.9 80 80 SSW 12 19 29.94 1014 10 16.09344 0 0
4:53 am 04:53 Mostly Cloudy 55 12.8 49 9.4 80 80 SSW 12 19 29.91 1013 10 16.09344 0 0
5:35 am 05:35 Cloudy 56 13.3 49 9.4 77 77 SSW 15 24 29.94 1014 10 16.09344 0 0
5:42 am 05:42 Cloudy 55 12.8 49 9.4 80 80 SSW 14 22 29.94 1014 10 16.09344 0 0
5:53 am 05:53 Cloudy 55 12.8 49 9.4 80 80 SSW 15 24 29.88 1012 10 16.09344 0 0
6:41 am 06:41 Cloudy 54 12.2 48 8.9 80 80 SSW 13 20 29.94 1014 10 16.09344 0 0
6:53 am 06:53 Cloudy 54 12.2 48 8.9 80 80 SSW 10 17 29.88 1012 10 16.09344 0 0
7:53 am 07:53 Mostly Cloudy 53 11.7 47 8.3 80 80 SSW 13 20 29.88 1012 10 16.09344 0 0
8:16 am 08:16 Partly Cloudy 53 11.7 47 8.3 80 80 SSW 12 19 29.91 1013 10 16.09344 0 0
8:53 am 08:53 Partly Cloudy 54 12.2 48 8.9 80 80 SSW 13 20 29.88 1012 10 16.09344 0 0
9:53 am 09:53 Partly Cloudy 57 13.9 50 10 78 78 SSW 15 24 29.85 1011 10 16.09344 0 0
10:53 am 10:53 Mostly Cloudy 60 15.6 50 10 70 70 SW 16 26 29.85 1011 10 16.09344 0 0
11:53 am 11:53 Partly Cloudy 62 16.7 47 8.3 58 58 SW 20 31 29.8 1009 10 16.09344 0 0
12:53 pm 12:53 Partly Cloudy 63 17.2 42 5.6 47 47 SW 15 24 29.74 1007 10 16.09344 0 0
1:53 pm 13:53 Cloudy 64 17.8 42 5.6 45 45 WSW 18 30 29.74 1007 10 16.09344 0 0
2:53 pm 14:53 Mostly Cloudy 60 15.6 34 1.1 38 38 W 24 39 29.77 1008 10 16.09344 0 0
3:53 pm 15:53 Mostly Cloudy 60 15.6 32 0 35 35 W 24 39 29.8 1009 10 16.09344 0 0
4:53 pm 16:53 Cloudy 53 11.7 33 0.6 47 47 WNW 17 28 29.91 1013 10 16.09344 0 0
5:53 pm 17:53 Mostly Cloudy 49 9.4 31 -0.6 50 50 W 18 30 29.94 1014 10 16.09344 0 0
6:53 pm 18:53 Clear 48 8.9 32 0 54 54 W 20 31 29.97 1015 10 16.09344 0 0
7:53 pm 19:53 Clear 47 8.3 27 -2.8 46 46 W 21 33 30 1016 10 16.09344 0 0
8:53 pm 20:53 Clear 45 7.2 22 -5.6 40 40 W 14 22 30.03 1017 10 16.09344 0 0
9:53 pm 21:53 Clear 44 6.7 23 -5 43 43 WSW 13 20 30.06 1018 10 16.09344 0 0
10:53 pm 22:53 Partly Cloudy 44 6.7 24 -4.4 45 45 WSW 17 28 30.03 1017 10 16.09344 0 0
11:53 pm 23:53 Partly Cloudy 43 6.1 24 -4.4 47 47 WSW 12 19 30.03 1017 10 16.09344 0 0

Powered by AerisWeather